Wetterdaten: Donnerstag, 12.05.2016
Datum Zeit Auen-Temp. Temp gefhlt Luftfeuchte Luftdruck Regen Wind Richtung Richtung Sonnenschein Taupunkt Windben
12.05.2016 00:00 9,5 C 9,3 C 86 % 1001,9 hPa 0,0 mm 0,9 km/h (0 Bft) O 90 0 min 7,3 C 0,0 km/h (0 Bft)
12.05.2016 00:05 9,2 C 9,0 C 86 % 1001,9 hPa 0,0 mm 0,0 km/h (0 Bft) SO 135 0 min 7,0 C 0,0 km/h (0 Bft)
12.05.2016 00:10 9,1 C 8,9 C 86 % 1001,9 hPa 0,0 mm 0,0 km/h (0 Bft) O 90 0 min 6,9 C 0,0 km/h (0 Bft)
12.05.2016 00:15 9,4 C 9,3 C 82 % 1001,8 hPa 0,0 mm 0,6 km/h (0 Bft) O 90 0 min 6,5 C 6,6 km/h (2 Bft)
12.05.2016 00:20 9,6 C 9,5 C 82 % 1001,8 hPa 0,0 mm 1,8 km/h (1 Bft) O-SO 112 0 min 6,7 C 4,8 km/h (1 Bft)
12.05.2016 00:25 9,2 C 9,0 C 85 % 1001,8 hPa 0,0 mm 2,1 km/h (1 Bft) N-NW 337 0 min 6,8 C 0,0 km/h (0 Bft)
12.05.2016 00:30 9,1 C 8,9 C 85 % 1001,8 hPa 0,0 mm 1,2 km/h (1 Bft) W-SW 247 0 min 6,7 C 0,0 km/h (0 Bft)
12.05.2016 00:35 9,2 C 9,0 C 82 % 1001,5 hPa 0,0 mm 1,2 km/h (1 Bft) SO 135 0 min 6,3 C 5,4 km/h (1 Bft)
12.05.2016 00:40 9,4 C 9,3 C 82 % 1001,5 hPa 0,0 mm 1,5 km/h (1 Bft) O-SO 112 0 min 6,5 C 3,0 km/h (1 Bft)
12.05.2016 00:45 9,0 C 8,9 C 85 % 1001,5 hPa 0,0 mm 0,6 km/h (0 Bft) NW 315 0 min 6,6 C 0,0 km/h (0 Bft)
12.05.2016 00:50 8,7 C 8,6 C 85 % 1001,5 hPa 0,0 mm 0,6 km/h (0 Bft) W-NW 292 0 min 6,3 C 0,0 km/h (0 Bft)
12.05.2016 00:55 8,8 C 8,7 C 82 % 1001,5 hPa 0,0 mm 0,6 km/h (0 Bft) SO 135 0 min 5,9 C 3,0 km/h (1 Bft)
12.05.2016 01:00 9,3 C 9,2 C 82 % 1001,5 hPa 0,0 mm 0,6 km/h (0 Bft) W-NW 292 0 min 6,4 C 8,3 km/h (2 Bft)
12.05.2016 01:02 8,6 C 8,5 C 87 % 1001,5 hPa 0,0 mm 1,5 km/h (1 Bft) O 90 0 min 6,6 C 0,0 km/h (0 Bft)
12.05.2016 01:04 8,6 C 8,5 C 87 % 1001,5 hPa 0,0 mm 1,5 km/h (1 Bft) O 90 0 min 6,6 C 0,0 km/h (0 Bft)
12.05.2016 01:05 8,6 C 8,5 C 87 % 1001,5 hPa 0,0 mm 1,5 km/h (1 Bft) O 90 0 min 6,6 C 0,0 km/h (0 Bft)
12.05.2016 01:10 8,8 C 8,7 C 82 % 1001,5 hPa 0,0 mm 1,2 km/h (1 Bft) S 180 0 min 5,9 C 0,0 km/h (0 Bft)
12.05.2016 01:15 9,0 C 9,0 C 83 % 1001,5 hPa 0,0 mm 0,0 km/h (0 Bft) O-NO 67 0 min 6,3 C 0,0 km/h (0 Bft)
12.05.2016 01:20 9,0 C 9,1 C 83 % 1001,5 hPa 0,0 mm 0,0 km/h (0 Bft) O-NO 67 0 min 6,3 C 0,0 km/h (0 Bft)
12.05.2016 01:25 8,9 C 8,8 C 88 % 1001,5 hPa 0,0 mm 0,6 km/h (0 Bft) NO 45 0 min 7,0 C 0,0 km/h (0 Bft)
12.05.2016 01:30 8,8 C 8,8 C 83 % 1001,5 hPa 0,0 mm 0,6 km/h (0 Bft) O-SO 112 0 min 6,1 C 0,0 km/h (0 Bft)
12.05.2016 01:35 9,2 C 9,0 C 88 % 1001,2 hPa 0,0 mm 0,6 km/h (0 Bft) W-NW 292 0 min 7,3 C 5,1 km/h (1 Bft)
12.05.2016 01:40 8,8 C 8,7 C 88 % 1001,2 hPa 0,0 mm 0,9 km/h (0 Bft) S-SO 157 0 min 6,9 C 0,0 km/h (0 Bft)
12.05.2016 01:45 9,5 C 9,5 C 84 % 1001,2 hPa 0,0 mm 1,2 km/h (1 Bft) NW 315 0 min 6,9 C 3,3 km/h (1 Bft)
12.05.2016 01:50 8,7 C 9,0 C 89 % 1001,2 hPa 0,0 mm 0,9 km/h (0 Bft) SW 225 0 min 7,0 C 0,0 km/h (0 Bft)
12.05.2016 01:55 8,6 C 8,5 C 88 % 1001,1 hPa 0,0 mm 0,6 km/h (0 Bft) O 90 0 min 6,7 C 0,0 km/h (0 Bft)
12.05.2016 02:00 8,4 C 8,4 C 88 % 1001,1 hPa 0,0 mm 0,0 km/h (0 Bft) W-NW 292 0 min 6,5 C 0,0 km/h (0 Bft)
12.05.2016 02:05 8,1 C 8,1 C 88 % 1001,1 hPa 0,0 mm 0,0 km/h (0 Bft) NW 315 0 min 6,2 C 0,0 km/h (0 Bft)
12.05.2016 02:10 8,1 C 8,0 C 88 % 1001,1 hPa 0,0 mm 0,0 km/h (0 Bft) N-NO 22 0 min 6,2 C 0,0 km/h (0 Bft)
12.05.2016 02:15 8,0 C 7,9 C 88 % 1000,8 hPa 0,0 mm 0,0 km/h (0 Bft) N-NW 337 0 min 6,1 C 0,0 km/h (0 Bft)
12.05.2016 02:20 8,0 C 7,9 C 88 % 1000,8 hPa 0,0 mm 0,0 km/h (0 Bft) W-NW 292 0 min 6,1 C 0,0 km/h (0 Bft)
12.05.2016 02:25 7,9 C 7,9 C 88 % 1000,8 hPa 0,0 mm 0,0 km/h (0 Bft) S 180 0 min 6,0 C 3,6 km/h (1 Bft)
12.05.2016 02:30 8,0 C 8,1 C 88 % 1000,8 hPa 0,0 mm 0,6 km/h (0 Bft) NO 45 0 min 6,1 C 0,0 km/h (0 Bft)
12.05.2016 02:35 8,2 C 8,2 C 84 % 1000,6 hPa 0,0 mm 1,2 km/h (1 Bft) S 180 0 min 5,7 C 0,0 km/h (0 Bft)
12.05.2016 02:40 8,2 C 8,4 C 89 % 1000,6 hPa 0,0 mm 0,6 km/h (0 Bft) S 180 0 min 6,5 C 4,5 km/h (1 Bft)
12.05.2016 02:45 8,3 C 8,5 C 85 % 1000,6 hPa 0,0 mm 0,3 km/h (0 Bft) S 180 0 min 5,9 C 0,0 km/h (0 Bft)
12.05.2016 02:50 7,9 C 8,2 C 90 % 1000,6 hPa 0,0 mm 0,3 km/h (0 Bft) S-SO 157 0 min 6,4 C 0,0 km/h (0 Bft)
12.05.2016 02:55 7,8 C 7,8 C 90 % 1000,6 hPa 0,0 mm 0,0 km/h (0 Bft) S 180 0 min 6,3 C 0,0 km/h (0 Bft)
12.05.2016 03:00 7,9 C 7,8 C 90 % 1000,6 hPa 0,0 mm 0,0 km/h (0 Bft) W 270 0 min 6,4 C 3,3 km/h (1 Bft)
12.05.2016 03:05 7,5 C 7,5 C 90 % 1000,6 hPa 0,0 mm 0,0 km/h (0 Bft) W-SW 247 0 min 6,0 C 0,0 km/h (0 Bft)
12.05.2016 03:10 7,2 C 7,1 C 90 % 1000,6 hPa 0,0 mm 0,0 km/h (0 Bft) NW 315 0 min 5,7 C 0,0 km/h (0 Bft)
12.05.2016 03:15 7,3 C 7,1 C 90 % 1000,2 hPa 0,0 mm 0,0 km/h (0 Bft) W-SW 247 0 min 5,8 C 0,0 km/h (0 Bft)
12.05.2016 03:20 7,6 C 7,4 C 85 % 1000,2 hPa 0,0 mm 0,0 km/h (0 Bft) O-NO 67 0 min 5,2 C 0,0 km/h (0 Bft)
12.05.2016 03:25 7,3 C 7,2 C 90 % 1000,2 hPa 0,0 mm 0,0 km/h (0 Bft) O-SO 112 0 min 5,8 C 0,0 km/h (0 Bft)
12.05.2016 03:30 7,5 C 7,5 C 85 % 1000,2 hPa 0,0 mm 0,0 km/h (0 Bft) SO 135 0 min 5,1 C 0,0 km/h (0 Bft)
12.05.2016 03:35 7,7 C 7,7 C 85 % 1000,0 hPa 0,0 mm 0,3 km/h (0 Bft) W 270 0 min 5,3 C 3,0 km/h (1 Bft)
12.05.2016 03:40 7,6 C 7,6 C 90 % 1000,0 hPa 0,0 mm 0,3 km/h (0 Bft) NW 315 0 min 6,1 C 0,0 km/h (0 Bft)
12.05.2016 03:45 7,5 C 7,5 C 90 % 1000,0 hPa 0,0 mm 0,0 km/h (0 Bft) NW 315 0 min 6,0 C 0,0 km/h (0 Bft)
12.05.2016 03:50 7,4 C 7,4 C 90 % 1000,0 hPa 0,0 mm 0,0 km/h (0 Bft) W-SW 247 0 min 5,9 C 0,0 km/h (0 Bft)
12.05.2016 03:55 7,5 C 7,5 C 86 % 1000,1 hPa 0,0 mm 0,0 km/h (0 Bft) N 360 0 min 5,3 C 0,0 km/h (0 Bft)
12.05.2016 04:00 7,6 C 7,5 C 90 % 1000,1 hPa 0,0 mm 0,0 km/h (0 Bft) W-SW 247 0 min 6,1 C 0,0 km/h (0 Bft)
12.05.2016 04:02 7,9 C 7,8 C 90 % 1000,1 hPa 0,0 mm 0,9 km/h (0 Bft) S-SO 157 0 min 6,4 C 6,6 km/h (2 Bft)
12.05.2016 04:05 7,9 C 7,8 C 90 % 1000,1 hPa 0,0 mm 0,9 km/h (0 Bft) S-SO 157 0 min 6,4 C 6,6 km/h (2 Bft)
12.05.2016 04:10 7,9 C 7,8 C 90 % 1000,1 hPa 0,0 mm 1,5 km/h (1 Bft) NO 45 0 min 6,4 C 0,0 km/h (0 Bft)
12.05.2016 04:15 7,7 C 7,6 C 90 % 1000,0 hPa 0,0 mm 1,2 km/h (1 Bft) S-SO 157 0 min 6,2 C 0,0 km/h (0 Bft)
12.05.2016 04:20 7,8 C 7,9 C 86 % 1000,0 hPa 0,0 mm 0,3 km/h (0 Bft) S 180 0 min 5,6 C 3,3 km/h (1 Bft)
12.05.2016 04:25 8,1 C 8,1 C 86 % 1000,0 hPa 0,0 mm 1,8 km/h (1 Bft) S 180 0 min 5,9 C 5,4 km/h (1 Bft)
12.05.2016 04:30 8,2 C 8,2 C 86 % 1000,0 hPa 0,0 mm 2,1 km/h (1 Bft) O-SO 112 0 min 6,0 C 0,0 km/h (0 Bft)
12.05.2016 04:35 8,2 C 8,1 C 90 % 999,9 hPa 0,0 mm 0,9 km/h (0 Bft) W-SW 247 0 min 6,7 C 0,0 km/h (0 Bft)
12.05.2016 04:40 7,9 C 7,8 C 90 % 999,9 hPa 0,0 mm 0,0 km/h (0 Bft) NW 315 0 min 6,4 C 0,0 km/h (0 Bft)
12.05.2016 04:45 7,6 C 7,5 C 90 % 999,9 hPa 0,0 mm 0,0 km/h (0 Bft) W 270 0 min 6,1 C 0,0 km/h (0 Bft)
12.05.2016 04:50 7,4 C 7,3 C 90 % 999,9 hPa 0,0 mm 0,0 km/h (0 Bft) W 270 0 min 5,9 C 0,0 km/h (0 Bft)
12.05.2016 04:55 7,4 C 7,3 C 90 % 999,8 hPa 0,0 mm 0,0 km/h (0 Bft) W 270 0 min 5,9 C 0,0 km/h (0 Bft)
12.05.2016 05:00 7,3 C 7,2 C 90 % 999,8 hPa 0,0 mm 0,0 km/h (0 Bft) SO 135 0 min 5,8 C 0,0 km/h (0 Bft)
12.05.2016 05:05 8,3 C 8,2 C 86 % 999,8 hPa 0,0 mm 3,3 km/h (1 Bft) S-SW 202 0 min 6,1 C 14,0 km/h (3 Bft)
12.05.2016 05:10 8,8 C 8,5 C 90 % 999,8 hPa 0,0 mm 4,5 km/h (1 Bft) NW 315 0 min 7,3 C 0,0 km/h (0 Bft)
12.05.2016 05:15 7,7 C 7,7 C 90 % 999,9 hPa 0,0 mm 2,1 km/h (1 Bft) W 270 0 min 6,2 C 0,0 km/h (0 Bft)
12.05.2016 05:20 7,7 C 7,6 C 90 % 999,9 hPa 0,0 mm 0,0 km/h (0 Bft) W-SW 247 0 min 6,2 C 0,0 km/h (0 Bft)
12.05.2016 05:25 7,8 C 7,6 C 90 % 999,9 hPa 0,0 mm 0,0 km/h (0 Bft) O-NO 67 0 min 6,3 C 0,0 km/h (0 Bft)
12.05.2016 05:30 7,7 C 7,6 C 90 % 999,9 hPa 0,0 mm 0,0 km/h (0 Bft) S-SO 157 0 min 6,2 C 0,0 km/h (0 Bft)
12.05.2016 05:35 8,0 C 7,8 C 90 % 999,9 hPa 0,0 mm 0,6 km/h (0 Bft) W-NW 292 0 min 6,5 C 3,0 km/h (1 Bft)
12.05.2016 05:40 8,0 C 7,9 C 90 % 999,9 hPa 0,0 mm 1,5 km/h (1 Bft) W-SW 247 0 min 6,5 C 4,8 km/h (1 Bft)
12.05.2016 05:45 8,5 C 8,5 C 86 % 999,9 hPa 0,0 mm 3,6 km/h (1 Bft) S 180 0 min 6,3 C 5,1 km/h (1 Bft)
12.05.2016 05:50 8,6 C 8,5 C 90 % 999,9 hPa 0,0 mm 3,3 km/h (1 Bft) S-SO 157 0 min 7,1 C 0,0 km/h (0 Bft)
12.05.2016 05:55 8,0 C 8,2 C 90 % 1000,0 hPa 0,0 mm 1,2 km/h (1 Bft) S 180 0 min 6,5 C 0,0 km/h (0 Bft)
12.05.2016 06:00 8,2 C 8,1 C 90 % 1000,0 hPa 0,0 mm 2,4 km/h (1 Bft) W-NW 292 0 min 6,7 C 6,0 km/h (2 Bft)
12.05.2016 06:05 8,5 C 8,7 C 86 % 1000,0 hPa 0,0 mm 2,7 km/h (1 Bft) S-SW 202 0 min 6,3 C 5,4 km/h (1 Bft)
12.05.2016 06:10 9,4 C 9,5 C 85 % 1000,0 hPa 0,0 mm 2,7 km/h (1 Bft) W-SW 247 0 min 7,0 C 4,5 km/h (1 Bft)
12.05.2016 06:15 10,1 C 10,3 C 85 % 1000,0 hPa 0,0 mm 3,3 km/h (1 Bft) N-NO 22 0 min 7,7 C 19,1 km/h (3 Bft)
12.05.2016 06:20 10,6 C 10,7 C 85 % 1000,0 hPa 0,0 mm 5,7 km/h (1 Bft) W-NW 292 0 min 8,2 C 16,7 km/h (3 Bft)
12.05.2016 06:25 11,1 C 11,1 C 85 % 1000,0 hPa 0,0 mm 6,9 km/h (2 Bft) W-SW 247 0 min 8,7 C 3,3 km/h (1 Bft)
12.05.2016 06:30 11,3 C 11,3 C 85 % 1000,0 hPa 0,0 mm 6,0 km/h (2 Bft) W 270 0 min 8,9 C 7,2 km/h (2 Bft)
12.05.2016 06:35 11,5 C 11,6 C 85 % 1000,1 hPa 0,0 mm 5,1 km/h (1 Bft) S 180 0 min 9,1 C 5,1 km/h (1 Bft)
12.05.2016 06:40 11,6 C 11,9 C 84 % 1000,1 hPa 0,0 mm 6,3 km/h (2 Bft) W-SW 247 0 min 9,0 C 10,4 km/h (2 Bft)
12.05.2016 06:45 11,9 C 12,3 C 84 % 1000,1 hPa 0,0 mm 9,2 km/h (2 Bft) S 180 0 min 9,3 C 29,8 km/h (5 Bft)
12.05.2016 06:50 12,0 C 12,3 C 84 % 1000,1 hPa 0,0 mm 10,4 km/h (2 Bft) W 270 0 min 9,4 C 15,5 km/h (3 Bft)
12.05.2016 06:55 12,1 C 12,6 C 84 % 1000,2 hPa 0,0 mm 10,1 km/h (2 Bft) S 180 0 min 9,5 C 30,1 km/h (5 Bft)
12.05.2016 07:00 12,1 C 12,7 C 84 % 1000,2 hPa 0,0 mm 9,8 km/h (2 Bft) N-NW 337 0 min 9,5 C 7,2 km/h (2 Bft)
12.05.2016 07:02 12,1 C 12,7 C 83 % 1000,2 hPa 0,0 mm 8,3 km/h (2 Bft) W 270 0 min 9,3 C 14,0 km/h (3 Bft)
12.05.2016 07:06 12,1 C 12,7 C 83 % 1000,2 hPa 0,0 mm 8,3 km/h (2 Bft) W 270 0 min 9,3 C 14,0 km/h (3 Bft)
12.05.2016 07:10 12,1 C 12,7 C 83 % 1000,2 hPa 0,0 mm 7,2 km/h (2 Bft) O-SO 112 0 min 9,3 C 14,0 km/h (3 Bft)
12.05.2016 07:15 12,1 C 12,7 C 83 % 1000,2 hPa 0,0 mm 7,5 km/h (2 Bft) NW 315 0 min 9,3 C 10,4 km/h (2 Bft)
12.05.2016 07:20 12,1 C 12,7 C 83 % 1000,2 hPa 0,0 mm 6,3 km/h (2 Bft) W-NW 292 0 min 9,3 C 12,8 km/h (3 Bft)
12.05.2016 07:25 12,2 C 12,7 C 85 % 1000,2 hPa 0,0 mm 5,4 km/h (1 Bft) S 180 0 min 9,8 C 10,1 km/h (2 Bft)
12.05.2016 07:30 12,2 C 12,7 C 83 % 1000,2 hPa 0,0 mm 5,1 km/h (1 Bft) O-NO 67 0 min 9,4 C 8,9 km/h (2 Bft)
12.05.2016 07:35 12,2 C 12,8 C 83 % 1000,1 hPa 0,0 mm 6,0 km/h (2 Bft) W 270 0 min 9,4 C 13,1 km/h (3 Bft)
12.05.2016 07:40 12,2 C 12,8 C 83 % 1000,1 hPa 0,0 mm 7,5 km/h (2 Bft) W-SW 247 0 min 9,4 C 8,6 km/h (2 Bft)
12.05.2016 07:45 12,2 C 12,7 C 85 % 1000,1 hPa 0,0 mm 7,5 km/h (2 Bft) SW 225 0 min 9,8 C 12,8 km/h (3 Bft)
12.05.2016 07:50 12,1 C 12,6 C 83 % 1000,1 hPa 0,0 mm 7,5 km/h (2 Bft) W 270 0 min 9,3 C 7,2 km/h (2 Bft)
12.05.2016 07:55 12,1 C 12,4 C 85 % 1000,1 hPa 0,0 mm 8,0 km/h (2 Bft) W 270 0 min 9,7 C 28,6 km/h (4 Bft)
12.05.2016 08:00 12,0 C 12,4 C 83 % 1000,1 hPa 0,0 mm 8,3 km/h (2 Bft) W 270 0 min 9,2 C 9,2 km/h (2 Bft)
12.05.2016 08:05 11,9 C 12,4 C 83 % 1000,1 hPa 0,0 mm 7,7 km/h (2 Bft) W-SW 247 0 min 9,1 C 8,0 km/h (2 Bft)
12.05.2016 08:10 11,7 C 12,2 C 83 % 1000,1 hPa 0,0 mm 7,5 km/h (2 Bft) W-SW 247 0 min 8,9 C 8,9 km/h (2 Bft)
12.05.2016 08:15 11,6 C 12,1 C 82 % 1000,2 hPa 0,0 mm 8,9 km/h (2 Bft) W-SW 247 0 min 8,6 C 13,1 km/h (3 Bft)
12.05.2016 08:20 11,6 C 12,2 C 82 % 1000,2 hPa 0,0 mm 7,7 km/h (2 Bft) S-SO 157 0 min 8,6 C 5,1 km/h (1 Bft)
12.05.2016 08:25 11,6 C 12,4 C 82 % 1000,2 hPa 0,0 mm 4,8 km/h (1 Bft) W 270 0 min 8,6 C 7,7 km/h (2 Bft)
12.05.2016 08:30 11,5 C 12,4 C 82 % 1000,2 hPa 0,0 mm 4,2 km/h (1 Bft) W-SW 247 0 min 8,5 C 14,9 km/h (3 Bft)
12.05.2016 08:35 11,5 C 12,5 C 82 % 1000,2 hPa 0,0 mm 5,7 km/h (1 Bft) N-NO 22 0 min 8,5 C 9,2 km/h (2 Bft)
12.05.2016 08:40 11,5 C 12,5 C 81 % 1000,2 hPa 0,0 mm 6,6 km/h (2 Bft) S-SW 202 0 min 8,4 C 10,1 km/h (2 Bft)
12.05.2016 08:45 11,5 C 12,7 C 81 % 1000,2 hPa 0,0 mm 5,7 km/h (1 Bft) N-NW 337 0 min 8,4 C 0,0 km/h (0 Bft)
12.05.2016 08:50 11,6 C 12,8 C 81 % 1000,2 hPa 0,0 mm 6,0 km/h (2 Bft) W-SW 247 0 min 8,5 C 18,8 km/h (3 Bft)
12.05.2016 08:55 11,6 C 13,1 C 81 % 1000,4 hPa 0,0 mm 6,0 km/h (2 Bft) W 270 0 min 8,5 C 8,9 km/h (2 Bft)
12.05.2016 09:00 11,6 C 13,1 C 80 % 1000,4 hPa 0,0 mm 7,2 km/h (2 Bft) N-NW 337 0 min 8,3 C 12,8 km/h (3 Bft)
12.05.2016 09:05 11,6 C 13,1 C 80 % 1000,4 hPa 0,0 mm 8,0 km/h (2 Bft) W-SW 247 0 min 8,3 C 17,3 km/h (3 Bft)
12.05.2016 09:10 11,6 C 13,1 C 79 % 1000,4 hPa 0,0 mm 9,2 km/h (2 Bft) W-SW 247 0 min 8,1 C 16,4 km/h (3 Bft)
12.05.2016 09:15 11,7 C 13,1 C 79 % 1000,2 hPa 0,0 mm 9,2 km/h (2 Bft) W-NW 292 0 min 8,2 C 19,1 km/h (3 Bft)
12.05.2016 09:20 11,6 C 12,9 C 79 % 1000,2 hPa 0,0 mm 8,9 km/h (2 Bft) W-SW 247 0 min 8,1 C 11,3 km/h (2 Bft)
12.05.2016 09:25 11,7 C 13,1 C 79 % 1000,2 hPa 0,0 mm 7,5 km/h (2 Bft) SW 225 0 min 8,2 C 7,5 km/h (2 Bft)
12.05.2016 09:30 11,7 C 13,1 C 79 % 1000,2 hPa 0,0 mm 6,6 km/h (2 Bft) W 270 0 min 8,2 C 4,2 km/h (1 Bft)
12.05.2016 09:35 11,7 C 13,0 C 78 % 1000,2 hPa 0,0 mm 8,0 km/h (2 Bft) SW 225 0 min 8,0 C 8,0 km/h (2 Bft)
12.05.2016 09:40 11,6 C 12,9 C 78 % 1000,2 hPa 0,0 mm 8,9 km/h (2 Bft) S-SW 202 0 min 7,9 C 8,3 km/h (2 Bft)
12.05.2016 09:45 11,7 C 12,9 C 78 % 1000,2 hPa 0,0 mm 8,9 km/h (2 Bft) W-NW 292 0 min 8,0 C 14,6 km/h (3 Bft)
12.05.2016 09:50 11,7 C 13,1 C 78 % 1000,2 hPa 0,0 mm 8,9 km/h (2 Bft) W 270 0 min 8,0 C 10,4 km/h (2 Bft)
12.05.2016 09:55 11,9 C 13,3 C 77 % 1000,5 hPa 0,0 mm 8,0 km/h (2 Bft) W 270 0 min 8,0 C 15,2 km/h (3 Bft)
12.05.2016 10:00 12,1 C 13,7 C 77 % 1000,5 hPa 0,0 mm 7,2 km/h (2 Bft) W-NW 292 0 min 8,2 C 9,8 km/h (2 Bft)
12.05.2016 10:05 12,4 C 14,3 C 77 % 1000,5 hPa 0,0 mm 7,7 km/h (2 Bft) NW 315 0 min 8,5 C 20,0 km/h (4 Bft)
12.05.2016 10:07 12,4 C 14,3 C 77 % 1000,5 hPa 0,0 mm 7,7 km/h (2 Bft) NW 315 0 min 8,5 C 20,0 km/h (4 Bft)
12.05.2016 10:10 12,4 C 14,4 C 76 % 1000,5 hPa 0,0 mm 8,3 km/h (2 Bft) W-NW 292 0 min 8,3 C 27,1 km/h (4 Bft)
12.05.2016 10:15 12,2 C 14,0 C 75 % 1000,3 hPa 0,0 mm 9,5 km/h (2 Bft) W-SW 247 0 min 7,9 C 13,1 km/h (3 Bft)
12.05.2016 10:20 12,0 C 13,6 C 75 % 1000,3 hPa 0,0 mm 8,9 km/h (2 Bft) S-SW 202 0 min 7,7 C 9,2 km/h (2 Bft)
12.05.2016 10:25 11,9 C 13,1 C 74 % 1000,3 hPa 0,0 mm 7,7 km/h (2 Bft) W-SW 247 0 min 7,4 C 6,3 km/h (2 Bft)
12.05.2016 10:30 11,9 C 13,1 C 74 % 1000,3 hPa 0,0 mm 7,2 km/h (2 Bft) W-SW 247 0 min 7,4 C 11,3 km/h (2 Bft)
12.05.2016 10:35 11,8 C 12,9 C 74 % 1000,5 hPa 0,0 mm 7,5 km/h (2 Bft) W-NW 292 0 min 7,3 C 35,2 km/h (5 Bft)
12.05.2016 10:40 11,8 C 12,9 C 73 % 1000,5 hPa 0,0 mm 9,2 km/h (2 Bft) W-SW 247 0 min 7,1 C 11,6 km/h (2 Bft)
12.05.2016 10:45 11,8 C 12,9 C 73 % 1000,5 hPa 0,0 mm 9,2 km/h (2 Bft) W 270 0 min 7,1 C 7,5 km/h (2 Bft)
12.05.2016 10:50 11,8 C 13,0 C 73 % 1000,5 hPa 0,0 mm 8,0 km/h (2 Bft) SW 225 0 min 7,1 C 11,0 km/h (2 Bft)
12.05.2016 10:55 11,8 C 13,1 C 73 % 1000,4 hPa 0,0 mm 7,2 km/h (2 Bft) SW 225 0 min 7,1 C 11,3 km/h (2 Bft)
12.05.2016 11:00 11,9 C 13,1 C 73 % 1000,4 hPa 0,0 mm 6,6 km/h (2 Bft) W-NW 292 0 min 7,2 C 8,9 km/h (2 Bft)
12.05.2016 11:05 11,9 C 13,1 C 73 % 1000,4 hPa 0,0 mm 6,0 km/h (2 Bft) SW 225 0 min 7,2 C 0,0 km/h (0 Bft)
12.05.2016 11:10 11,9 C 13,0 C 73 % 1000,4 hPa 0,0 mm 6,0 km/h (2 Bft) S 180 0 min 7,2 C 3,3 km/h (1 Bft)
12.05.2016 11:15 11,9 C 12,9 C 72 % 1000,5 hPa 0,0 mm 6,0 km/h (2 Bft) W-NW 292 0 min 7,0 C 13,7 km/h (3 Bft)
12.05.2016 11:20 11,9 C 12,9 C 72 % 1000,5 hPa 0,0 mm 6,9 km/h (2 Bft) NW 315 0 min 7,0 C 6,6 km/h (2 Bft)
12.05.2016 11:25 11,9 C 12,9 C 72 % 1000,5 hPa 0,0 mm 7,5 km/h (2 Bft) W 270 0 min 7,0 C 8,3 km/h (2 Bft)
12.05.2016 11:30 12,0 C 13,0 C 72 % 1000,5 hPa 0,0 mm 7,7 km/h (2 Bft) W-NW 292 0 min 7,1 C 14,3 km/h (3 Bft)
12.05.2016 11:35 11,9 C 12,8 C 72 % 1000,6 hPa 0,0 mm 7,7 km/h (2 Bft) W-SW 247 0 min 7,0 C 21,2 km/h (4 Bft)
12.05.2016 11:40 11,8 C 12,3 C 72 % 1000,6 hPa 0,0 mm 8,9 km/h (2 Bft) W 270 0 min 6,9 C 9,5 km/h (2 Bft)
12.05.2016 11:45 11,6 C 11,9 C 72 % 1000,6 hPa 0,0 mm 8,9 km/h (2 Bft) W 270 0 min 6,7 C 12,5 km/h (3 Bft)
12.05.2016 11:50 11,6 C 12,0 C 72 % 1000,6 hPa 0,0 mm 8,6 km/h (2 Bft) W-SW 247 0 min 6,7 C 9,5 km/h (2 Bft)
12.05.2016 11:55 11,7 C 12,3 C 73 % 1000,5 hPa 0,0 mm 7,7 km/h (2 Bft) W 270 0 min 7,0 C 8,0 km/h (2 Bft)
12.05.2016 12:00 11,8 C 12,4 C 73 % 1000,5 hPa 0,0 mm 7,2 km/h (2 Bft) W-SW 247 0 min 7,1 C 3,9 km/h (1 Bft)
12.05.2016 12:05 11,7 C 12,6 C 73 % 1000,5 hPa 0,0 mm 7,7 km/h (2 Bft) NW 315 0 min 7,0 C 3,9 km/h (1 Bft)
12.05.2016 12:10 11,5 C 12,7 C 73 % 1000,5 hPa 0,0 mm 8,6 km/h (2 Bft) W 270 0 min 6,8 C 12,5 km/h (3 Bft)
12.05.2016 12:15 11,5 C 12,7 C 73 % 1000,4 hPa 0,0 mm 8,6 km/h (2 Bft) N-NO 22 0 min 6,8 C 8,3 km/h (2 Bft)
12.05.2016 12:20 11,5 C 12,4 C 73 % 1000,4 hPa 0,0 mm 9,2 km/h (2 Bft) W-NW 292 0 min 6,8 C 6,6 km/h (2 Bft)
12.05.2016 12:25 11,3 C 11,4 C 73 % 1000,4 hPa 0,0 mm 11,9 km/h (2 Bft) W-NW 292 0 min 6,6 C 14,3 km/h (3 Bft)
12.05.2016 12:30 11,3 C 11,2 C 74 % 1000,4 hPa 0,0 mm 10,4 km/h (2 Bft) NW 315 0 min 6,8 C 12,8 km/h (3 Bft)
12.05.2016 12:35 11,1 C 11,1 C 74 % 1000,7 hPa 0,0 mm 6,9 km/h (2 Bft) W-NW 292 0 min 6,6 C 8,9 km/h (2 Bft)
12.05.2016 12:40 11,1 C 10,9 C 74 % 1000,7 hPa 0,0 mm 7,2 km/h (2 Bft) N-NW 337 0 min 6,6 C 11,3 km/h (2 Bft)
12.05.2016 12:45 10,9 C 10,8 C 75 % 1000,7 hPa 0,0 mm 7,5 km/h (2 Bft) W-NW 292 0 min 6,6 C 12,2 km/h (2 Bft)
12.05.2016 12:50 10,7 C 10,5 C 75 % 1000,7 hPa 0,0 mm 8,3 km/h (2 Bft) W-NW 292 0 min 6,5 C 8,0 km/h (2 Bft)
12.05.2016 12:55 10,5 C 10,3 C 76 % 1000,7 hPa 0,0 mm 8,9 km/h (2 Bft) W-SW 247 0 min 6,5 C 9,8 km/h (2 Bft)
12.05.2016 13:00 10,4 C 10,2 C 76 % 1000,7 hPa 0,0 mm 8,6 km/h (2 Bft) W-SW 247 0 min 6,4 C 16,4 km/h (3 Bft)
12.05.2016 13:05 10,3 C 10,1 C 77 % 1000,7 hPa 0,0 mm 8,6 km/h (2 Bft) W 270 0 min 6,4 C 8,3 km/h (2 Bft)
12.05.2016 13:07 10,3 C 10,1 C 77 % 1000,7 hPa 0,7 mm 9,8 km/h (2 Bft) NW 315 0 min 6,4 C 20,3 km/h (4 Bft)
12.05.2016 13:08 10,3 C 10,1 C 77 % 1000,7 hPa 0,0 mm 9,8 km/h (2 Bft) NW 315 0 min 6,4 C 20,3 km/h (4 Bft)
12.05.2016 13:10 10,3 C 10,1 C 77 % 1000,7 hPa 0,0 mm 9,8 km/h (2 Bft) NW 315 0 min 6,4 C 20,3 km/h (4 Bft)
12.05.2016 13:15 10,2 C 10,3 C 78 % 1000,5 hPa 0,0 mm 8,3 km/h (2 Bft) N-NW 337 0 min 6,5 C 4,2 km/h (1 Bft)
12.05.2016 13:20 10,2 C 10,3 C 78 % 1000,5 hPa 0,0 mm 8,3 km/h (2 Bft) W-SW 247 0 min 6,5 C 4,8 km/h (1 Bft)
12.05.2016 13:25 10,2 C 10,2 C 79 % 1000,5 hPa 0,0 mm 8,6 km/h (2 Bft) W-SW 247 0 min 6,7 C 8,9 km/h (2 Bft)
12.05.2016 13:30 10,1 C 10,0 C 79 % 1000,5 hPa 0,0 mm 10,7 km/h (2 Bft) W 270 0 min 6,6 C 15,5 km/h (3 Bft)
12.05.2016 13:35 10,0 C 10,1 C 79 % 1000,4 hPa 0,0 mm 9,5 km/h (2 Bft) W 270 0 min 6,5 C 0,0 km/h (0 Bft)
12.05.2016 13:40 10,1 C 10,2 C 80 % 1000,4 hPa 0,0 mm 7,2 km/h (2 Bft) SO 135 0 min 6,8 C 16,1 km/h (3 Bft)
12.05.2016 13:45 10,1 C 10,4 C 80 % 1000,4 hPa 0,0 mm 5,7 km/h (1 Bft) W 270 0 min 6,8 C 16,1 km/h (3 Bft)
12.05.2016 13:50 10,1 C 10,4 C 80 % 1000,4 hPa 0,0 mm 6,9 km/h (2 Bft) W-SW 247 0 min 6,8 C 0,0 km/h (0 Bft)
12.05.2016 13:55 10,2 C 10,2 C 81 % 1000,4 hPa 0,0 mm 7,7 km/h (2 Bft) W-NW 292 0 min 7,1 C 16,1 km/h (3 Bft)
12.05.2016 14:00 10,1 C 10,2 C 81 % 1000,4 hPa 0,0 mm 6,0 km/h (2 Bft) W-SW 247 0 min 7,0 C 3,9 km/h (1 Bft)
12.05.2016 14:05 10,1 C 10,2 C 81 % 1000,4 hPa 0,0 mm 5,1 km/h (1 Bft) NO 45 0 min 7,0 C 0,0 km/h (0 Bft)
12.05.2016 14:10 10,2 C 10,3 C 81 % 1000,4 hPa 0,7 mm 3,9 km/h (1 Bft) S-SO 157 0 min 7,1 C 3,0 km/h (1 Bft)
12.05.2016 14:15 10,2 C 10,4 C 81 % 1000,2 hPa 0,0 mm 3,9 km/h (1 Bft) W-SW 247 0 min 7,1 C 8,9 km/h (2 Bft)
12.05.2016 14:20 10,1 C 10,3 C 81 % 1000,2 hPa 0,0 mm 6,3 km/h (2 Bft) W-NW 292 0 min 7,0 C 11,9 km/h (2 Bft)
12.05.2016 14:25 10,1 C 10,1 C 81 % 1000,2 hPa 0,0 mm 8,0 km/h (2 Bft) NW 315 0 min 7,0 C 0,0 km/h (0 Bft)
12.05.2016 14:30 10,1 C 10,2 C 81 % 1000,2 hPa 0,0 mm 7,2 km/h (2 Bft) W 270 0 min 7,0 C 6,6 km/h (2 Bft)
12.05.2016 14:35 10,0 C 10,1 C 81 % 1000,1 hPa 0,0 mm 4,8 km/h (1 Bft) W-SW 247 0 min 6,9 C 5,4 km/h (1 Bft)
12.05.2016 14:40 10,0 C 10,1 C 81 % 1000,1 hPa 0,0 mm 4,2 km/h (1 Bft) W-SW 247 0 min 6,9 C 4,5 km/h (1 Bft)
12.05.2016 14:45 9,9 C 9,9 C 81 % 1000,1 hPa 0,0 mm 3,6 km/h (1 Bft) W-NW 292 0 min 6,8 C 11,3 km/h (2 Bft)
12.05.2016 14:50 9,7 C 9,7 C 81 % 1000,1 hPa 0,0 mm 4,8 km/h (1 Bft) O-NO 67 0 min 6,6 C 3,6 km/h (1 Bft)
12.05.2016 14:55 9,6 C 9,6 C 81 % 1000,2 hPa 0,0 mm 6,3 km/h (2 Bft) S-SW 202 0 min 6,5 C 10,1 km/h (2 Bft)
12.05.2016 15:00 9,5 C 9,5 C 81 % 1000,2 hPa 0,0 mm 5,1 km/h (1 Bft) S 180 0 min 6,4 C 6,0 km/h (2 Bft)
12.05.2016 15:05 9,5 C 9,5 C 80 % 1000,2 hPa 0,0 mm 3,6 km/h (1 Bft) W 270 0 min 6,2 C 3,3 km/h (1 Bft)
12.05.2016 15:10 9,5 C 9,5 C 80 % 1000,2 hPa 0,7 mm 3,0 km/h (1 Bft) W 270 0 min 6,2 C 6,9 km/h (2 Bft)
12.05.2016 15:15 9,3 C 9,2 C 80 % 1000,3 hPa 0,0 mm 6,3 km/h (2 Bft) S 180 0 min 6,0 C 12,5 km/h (3 Bft)
12.05.2016 15:20 9,2 C 9,0 C 80 % 1000,3 hPa 0,0 mm 8,6 km/h (2 Bft) W-SW 247 0 min 5,9 C 6,0 km/h (2 Bft)
12.05.2016 15:25 9,1 C 9,0 C 80 % 1000,3 hPa 0,0 mm 8,0 km/h (2 Bft) S-SW 202 0 min 5,8 C 3,3 km/h (1 Bft)
12.05.2016 15:30 9,1 C 9,0 C 80 % 1000,3 hPa 0,0 mm 6,0 km/h (2 Bft) SW 225 0 min 5,8 C 3,6 km/h (1 Bft)
12.05.2016 15:35 9,1 C 9,1 C 80 % 1000,2 hPa 0,0 mm 4,2 km/h (1 Bft) NW 315 0 min 5,8 C 6,9 km/h (2 Bft)
12.05.2016 15:40 9,1 C 9,2 C 80 % 1000,2 hPa 0,0 mm 4,5 km/h (1 Bft) NW 315 0 min 5,8 C 11,9 km/h (2 Bft)
12.05.2016 15:45 9,1 C 9,1 C 80 % 1000,2 hPa 0,7 mm 4,2 km/h (1 Bft) S-SW 202 0 min 5,8 C 5,7 km/h (1 Bft)
12.05.2016 15:50 9,1 C 9,1 C 80 % 1000,2 hPa 0,0 mm 3,0 km/h (1 Bft) S 180 0 min 5,8 C 4,5 km/h (1 Bft)
12.05.2016 15:55 9,0 C 8,9 C 80 % 1000,6 hPa 0,0 mm 1,2 km/h (1 Bft) SW 225 0 min 5,7 C 0,0 km/h (0 Bft)
12.05.2016 16:00 9,0 C 8,9 C 80 % 1000,6 hPa 0,0 mm 0,6 km/h (0 Bft) S 180 0 min 5,7 C 0,0 km/h (0 Bft)
12.05.2016 16:05 8,9 C 8,9 C 80 % 1000,6 hPa 0,7 mm 0,6 km/h (0 Bft) N-NO 22 0 min 5,6 C 0,0 km/h (0 Bft)
12.05.2016 16:07 8,9 C 8,9 C 80 % 1000,6 hPa 0,0 mm 0,9 km/h (0 Bft) W-SW 247 0 min 5,6 C 5,4 km/h (1 Bft)
12.05.2016 16:09 8,9 C 8,9 C 80 % 1000,6 hPa 0,0 mm 0,9 km/h (0 Bft) W-SW 247 0 min 5,6 C 5,4 km/h (1 Bft)
12.05.2016 16:10 8,9 C 8,9 C 80 % 1000,6 hPa 0,0 mm 0,9 km/h (0 Bft) W-SW 247 0 min 5,6 C 5,4 km/h (1 Bft)
12.05.2016 16:15 8,9 C 8,9 C 81 % 1000,4 hPa 0,0 mm 1,2 km/h (1 Bft) W-SW 247 0 min 5,8 C 4,5 km/h (1 Bft)
12.05.2016 16:20 8,9 C 9,0 C 81 % 1000,4 hPa 0,7 mm 0,9 km/h (0 Bft) SW 225 0 min 5,8 C 3,3 km/h (1 Bft)
12.05.2016 16:25 8,9 C 9,0 C 81 % 1000,4 hPa 0,0 mm 1,5 km/h (1 Bft) S 180 0 min 5,8 C 3,6 km/h (1 Bft)
12.05.2016 16:30 8,9 C 9,0 C 81 % 1000,4 hPa 0,0 mm 1,8 km/h (1 Bft) SW 225 0 min 5,8 C 7,7 km/h (2 Bft)
12.05.2016 16:35 8,9 C 9,0 C 81 % 1000,5 hPa 0,7 mm 1,8 km/h (1 Bft) SW 225 0 min 5,8 C 4,5 km/h (1 Bft)
12.05.2016 16:40 8,9 C 9,1 C 82 % 1000,5 hPa 0,0 mm 2,4 km/h (1 Bft) SW 225 0 min 6,0 C 3,3 km/h (1 Bft)
12.05.2016 16:45 9,0 C 9,3 C 82 % 1000,5 hPa 0,0 mm 2,4 km/h (1 Bft) SW 225 0 min 6,1 C 0,0 km/h (0 Bft)
12.05.2016 16:50 9,0 C 9,3 C 82 % 1000,5 hPa 0,0 mm 1,5 km/h (1 Bft) S 180 0 min 6,1 C 0,0 km/h (0 Bft)
12.05.2016 16:55 9,2 C 9,4 C 82 % 1000,3 hPa 0,7 mm 0,6 km/h (0 Bft) SW 225 0 min 6,3 C 6,6 km/h (2 Bft)
12.05.2016 17:00 9,1 C 9,4 C 82 % 1000,3 hPa 0,0 mm 0,9 km/h (0 Bft) W-SW 247 0 min 6,2 C 3,0 km/h (1 Bft)
12.05.2016 17:05 9,3 C 9,6 C 82 % 1000,3 hPa 0,0 mm 0,9 km/h (0 Bft) W-SW 247 0 min 6,4 C 3,9 km/h (1 Bft)
12.05.2016 17:10 9,4 C 9,7 C 83 % 1000,3 hPa 0,0 mm 0,9 km/h (0 Bft) W-SW 247 0 min 6,7 C 3,3 km/h (1 Bft)
12.05.2016 17:15 9,5 C 9,9 C 83 % 1000,3 hPa 0,0 mm 1,5 km/h (1 Bft) W-SW 247 0 min 6,8 C 0,0 km/h (0 Bft)
12.05.2016 17:20 9,5 C 10,0 C 83 % 1000,3 hPa 0,0 mm 2,1 km/h (1 Bft) W 270 0 min 6,8 C 4,2 km/h (1 Bft)
12.05.2016 17:25 9,5 C 10,0 C 83 % 1000,3 hPa 0,0 mm 2,7 km/h (1 Bft) W 270 0 min 6,8 C 4,5 km/h (1 Bft)
12.05.2016 17:30 9,6 C 10,0 C 83 % 1000,3 hPa 0,0 mm 3,0 km/h (1 Bft) W 270 0 min 6,9 C 3,9 km/h (1 Bft)
12.05.2016 17:35 9,6 C 10,0 C 83 % 1000,5 hPa 0,0 mm 1,8 km/h (1 Bft) SW 225 0 min 6,9 C 3,3 km/h (1 Bft)
12.05.2016 17:40 9,6 C 9,9 C 83 % 1000,5 hPa 0,0 mm 1,2 km/h (1 Bft) SW 225 0 min 6,9 C 0,0 km/h (0 Bft)
12.05.2016 17:45 9,5 C 9,7 C 83 % 1000,5 hPa 0,0 mm 2,4 km/h (1 Bft) S 180 0 min 6,8 C 8,3 km/h (2 Bft)
12.05.2016 17:50 9,5 C 9,6 C 83 % 1000,5 hPa 0,7 mm 3,6 km/h (1 Bft) W 270 0 min 6,8 C 4,5 km/h (1 Bft)
12.05.2016 17:55 9,4 C 9,4 C 83 % 1000,1 hPa 0,0 mm 5,4 km/h (1 Bft) W-SW 247 0 min 6,7 C 5,1 km/h (1 Bft)
12.05.2016 18:00 9,4 C 9,5 C 82 % 1000,1 hPa 0,0 mm 6,0 km/h (2 Bft) S 180 0 min 6,5 C 14,3 km/h (3 Bft)
12.05.2016 18:05 9,3 C 9,3 C 82 % 1000,1 hPa 0,0 mm 6,0 km/h (2 Bft) W-SW 247 0 min 6,4 C 8,0 km/h (2 Bft)
12.05.2016 18:10 9,3 C 9,3 C 82 % 1000,1 hPa 0,0 mm 6,3 km/h (2 Bft) SW 225 0 min 6,4 C 11,3 km/h (2 Bft)
12.05.2016 18:15 9,3 C 9,3 C 82 % 999,9 hPa 0,0 mm 4,8 km/h (1 Bft) NW 315 0 min 6,4 C 3,9 km/h (1 Bft)
12.05.2016 18:20 9,3 C 9,4 C 82 % 999,9 hPa 0,0 mm 4,2 km/h (1 Bft) W-NW 292 0 min 6,4 C 5,1 km/h (1 Bft)
12.05.2016 18:25 9,3 C 9,4 C 82 % 999,9 hPa 0,0 mm 1,5 km/h (1 Bft) W 270 0 min 6,4 C 0,0 km/h (0 Bft)
12.05.2016 18:30 9,3 C 9,3 C 82 % 999,9 hPa 0,0 mm 1,2 km/h (1 Bft) O-NO 67 0 min 6,4 C 5,1 km/h (1 Bft)
12.05.2016 18:35 9,2 C 9,3 C 82 % 999,8 hPa 0,0 mm 0,9 km/h (0 Bft) W 270 0 min 6,3 C 0,0 km/h (0 Bft)
12.05.2016 18:40 9,2 C 9,2 C 82 % 999,8 hPa 0,0 mm 1,8 km/h (1 Bft) SW 225 0 min 6,3 C 7,7 km/h (2 Bft)
12.05.2016 18:45 9,2 C 9,2 C 82 % 999,8 hPa 0,0 mm 1,8 km/h (1 Bft) S 180 0 min 6,3 C 0,0 km/h (0 Bft)
12.05.2016 18:50 9,2 C 9,2 C 82 % 999,8 hPa 0,0 mm 1,5 km/h (1 Bft) SO 135 0 min 6,3 C 0,0 km/h (0 Bft)
12.05.2016 18:55 9,1 C 9,0 C 82 % 999,6 hPa 0,0 mm 3,0 km/h (1 Bft) SO 135 0 min 6,2 C 0,0 km/h (0 Bft)
12.05.2016 19:00 9,1 C 9,1 C 82 % 999,6 hPa 0,0 mm 3,3 km/h (1 Bft) W-SW 247 0 min 6,2 C 5,7 km/h (1 Bft)
12.05.2016 19:05 9,1 C 9,0 C 82 % 999,6 hPa 0,0 mm 1,5 km/h (1 Bft) N-NO 22 0 min 6,2 C 0,0 km/h (0 Bft)
12.05.2016 19:07 9,1 C 9,0 C 84 % 999,6 hPa 0,0 mm 1,2 km/h (1 Bft) SO 135 0 min 6,5 C 7,5 km/h (2 Bft)
12.05.2016 19:10 9,1 C 9,0 C 84 % 999,6 hPa 0,0 mm 1,2 km/h (1 Bft) SO 135 0 min 6,5 C 7,5 km/h (2 Bft)
12.05.2016 19:15 9,0 C 8,8 C 84 % 999,6 hPa 0,0 mm 1,2 km/h (1 Bft) SW 225 0 min 6,4 C 6,3 km/h (2 Bft)
12.05.2016 19:20 8,9 C 8,7 C 84 % 999,6 hPa 0,0 mm 1,8 km/h (1 Bft) NW 315 0 min 6,3 C 0,0 km/h (0 Bft)
12.05.2016 19:25 8,8 C 8,6 C 84 % 999,6 hPa 0,0 mm 0,6 km/h (0 Bft) W-NW 292 0 min 6,2 C 0,0 km/h (0 Bft)
12.05.2016 19:30 8,8 C 8,6 C 84 % 999,6 hPa 0,0 mm 0,0 km/h (0 Bft) S-SO 157 0 min 6,2 C 0,0 km/h (0 Bft)
12.05.2016 19:35 8,6 C 8,4 C 84 % 999,5 hPa 0,0 mm 0,6 km/h (0 Bft) O-NO 67 0 min 6,1 C 0,0 km/h (0 Bft)
12.05.2016 19:40 8,6 C 8,4 C 84 % 999,5 hPa 0,0 mm 0,6 km/h (0 Bft) W-SW 247 0 min 6,1 C 0,0 km/h (0 Bft)
12.05.2016 19:45 8,5 C 8,3 C 85 % 999,5 hPa 0,0 mm 0,6 km/h (0 Bft) O 90 0 min 6,1 C 5,1 km/h (1 Bft)
12.05.2016 19:50 8,5 C 8,3 C 85 % 999,5 hPa 0,0 mm 0,3 km/h (0 Bft) N-NO 22 0 min 6,1 C 0,0 km/h (0 Bft)
12.05.2016 19:55 8,4 C 8,2 C 85 % 999,7 hPa 0,0 mm 0,9 km/h (0 Bft) W-NW 292 0 min 6,0 C 0,0 km/h (0 Bft)
12.05.2016 20:00 8,3 C 8,2 C 83 % 999,7 hPa 0,0 mm 1,2 km/h (1 Bft) S-SW 202 0 min 5,6 C 4,5 km/h (1 Bft)
12.05.2016 20:05 8,3 C 8,1 C 85 % 999,7 hPa 0,0 mm 1,2 km/h (1 Bft) S-SO 157 0 min 5,9 C 7,2 km/h (2 Bft)
12.05.2016 20:10 8,2 C 8,0 C 85 % 999,7 hPa 0,0 mm 0,9 km/h (0 Bft) NO 45 0 min 5,8 C 0,0 km/h (0 Bft)
12.05.2016 20:15 8,2 C 8,0 C 85 % 999,6 hPa 0,0 mm 0,9 km/h (0 Bft) S 180 0 min 5,8 C 0,0 km/h (0 Bft)
12.05.2016 20:20 8,1 C 7,9 C 85 % 999,6 hPa 0,0 mm 0,6 km/h (0 Bft) S-SO 157 0 min 5,7 C 3,0 km/h (1 Bft)
12.05.2016 20:25 8,1 C 7,9 C 85 % 999,6 hPa 0,0 mm 1,8 km/h (1 Bft) NW 315 0 min 5,7 C 0,0 km/h (0 Bft)
12.05.2016 20:30 8,0 C 7,8 C 85 % 999,6 hPa 0,0 mm 2,1 km/h (1 Bft) N-NO 22 0 min 5,6 C 0,0 km/h (0 Bft)
12.05.2016 20:35 8,0 C 7,8 C 85 % 999,8 hPa 0,0 mm 0,6 km/h (0 Bft) N-NO 22 0 min 5,6 C 0,0 km/h (0 Bft)
12.05.2016 20:40 7,9 C 7,7 C 86 % 999,8 hPa 0,0 mm 0,3 km/h (0 Bft) W-SW 247 0 min 5,7 C 0,0 km/h (0 Bft)
12.05.2016 20:45 7,8 C 7,6 C 86 % 999,8 hPa 0,0 mm 0,3 km/h (0 Bft) S 180 0 min 5,6 C 4,8 km/h (1 Bft)
12.05.2016 20:50 7,8 C 7,6 C 86 % 999,8 hPa 0,0 mm 0,9 km/h (0 Bft) SW 225 0 min 5,6 C 9,2 km/h (2 Bft)
12.05.2016 20:55 7,7 C 7,5 C 86 % 999,7 hPa 0,0 mm 2,4 km/h (1 Bft) S-SW 202 0 min 5,5 C 3,3 km/h (1 Bft)
12.05.2016 21:00 7,7 C 7,5 C 86 % 999,7 hPa 0,0 mm 2,1 km/h (1 Bft) SO 135 0 min 5,5 C 0,0 km/h (0 Bft)
12.05.2016 21:05 7,6 C 7,4 C 86 % 999,7 hPa 0,0 mm 0,6 km/h (0 Bft) W-SW 247 0 min 5,4 C 3,3 km/h (1 Bft)
12.05.2016 21:10 7,6 C 7,4 C 87 % 999,7 hPa 0,0 mm 0,3 km/h (0 Bft) O-NO 67 0 min 5,6 C 0,0 km/h (0 Bft)
12.05.2016 21:15 7,5 C 7,3 C 87 % 999,7 hPa 0,0 mm 0,3 km/h (0 Bft) NW 315 0 min 5,5 C 0,0 km/h (0 Bft)
12.05.2016 21:20 7,5 C 7,3 C 87 % 999,7 hPa 0,0 mm 0,0 km/h (0 Bft) NW 315 0 min 5,5 C 0,0 km/h (0 Bft)
12.05.2016 21:25 7,5 C 7,3 C 87 % 999,7 hPa 0,0 mm 0,0 km/h (0 Bft) NW 315 0 min 5,5 C 0,0 km/h (0 Bft)
12.05.2016 21:30 7,5 C 7,3 C 87 % 999,7 hPa 0,0 mm 0,0 km/h (0 Bft) SW 225 0 min 5,5 C 0,0 km/h (0 Bft)
12.05.2016 21:35 7,6 C 7,4 C 87 % 999,8 hPa 0,0 mm 1,8 km/h (1 Bft) S 180 0 min 5,6 C 3,3 km/h (1 Bft)
12.05.2016 21:40 7,6 C 7,4 C 87 % 999,8 hPa 0,0 mm 1,8 km/h (1 Bft) SW 225 0 min 5,6 C 0,0 km/h (0 Bft)
12.05.2016 21:45 7,6 C 7,5 C 87 % 999,8 hPa 0,0 mm 0,6 km/h (0 Bft) S-SO 157 0 min 5,6 C 0,0 km/h (0 Bft)
12.05.2016 21:50 7,7 C 7,5 C 87 % 999,8 hPa 0,0 mm 0,9 km/h (0 Bft) S-SW 202 0 min 5,7 C 3,0 km/h (1 Bft)
12.05.2016 21:55 7,7 C 7,5 C 88 % 999,9 hPa 0,0 mm 1,5 km/h (1 Bft) SO 135 0 min 5,8 C 0,0 km/h (0 Bft)
12.05.2016 22:00 7,7 C 7,5 C 88 % 999,9 hPa 0,0 mm 1,5 km/h (1 Bft) S-SO 157 0 min 5,8 C 0,0 km/h (0 Bft)
12.05.2016 22:05 7,7 C 7,5 C 89 % 999,9 hPa 0,0 mm 0,9 km/h (0 Bft) N-NO 22 0 min 6,0 C 0,0 km/h (0 Bft)
12.05.2016 22:07 7,7 C 7,5 C 89 % 999,9 hPa 0,0 mm 1,2 km/h (1 Bft) O-SO 112 0 min 6,0 C 0,0 km/h (0 Bft)
12.05.2016 22:11 7,7 C 7,5 C 89 % 999,9 hPa 0,0 mm 1,2 km/h (1 Bft) O-SO 112 0 min 6,0 C 0,0 km/h (0 Bft)
12.05.2016 22:15 7,7 C 7,5 C 89 % 999,8 hPa 0,0 mm 1,5 km/h (1 Bft) SO 135 0 min 6,0 C 0,0 km/h (0 Bft)
12.05.2016 22:20 7,7 C 7,5 C 89 % 999,8 hPa 0,0 mm 1,5 km/h (1 Bft) W 270 0 min 6,0 C 11,9 km/h (2 Bft)
12.05.2016 22:25 7,7 C 7,5 C 89 % 999,8 hPa 0,0 mm 3,9 km/h (1 Bft) S-SO 157 0 min 6,0 C 7,2 km/h (2 Bft)
12.05.2016 22:30 7,8 C 7,6 C 88 % 999,8 hPa 0,0 mm 4,8 km/h (1 Bft) W-SW 247 0 min 5,9 C 5,4 km/h (1 Bft)
12.05.2016 22:35 7,8 C 7,6 C 88 % 1000,1 hPa 0,0 mm 3,0 km/h (1 Bft) W-SW 247 0 min 5,9 C 5,7 km/h (1 Bft)
12.05.2016 22:40 7,8 C 7,6 C 88 % 1000,1 hPa 0,0 mm 3,3 km/h (1 Bft) W-SW 247 0 min 5,9 C 8,6 km/h (2 Bft)
12.05.2016 22:45 7,8 C 7,7 C 88 % 1000,1 hPa 0,0 mm 6,0 km/h (2 Bft) W 270 0 min 5,9 C 0,0 km/h (0 Bft)
12.05.2016 22:50 7,8 C 7,7 C 88 % 1000,1 hPa 0,0 mm 4,5 km/h (1 Bft) S 180 0 min 5,9 C 3,3 km/h (1 Bft)
12.05.2016 22:55 7,8 C 7,7 C 88 % 999,9 hPa 0,0 mm 1,2 km/h (1 Bft) SW 225 0 min 5,9 C 8,0 km/h (2 Bft)
12.05.2016 23:00 7,8 C 7,7 C 88 % 999,9 hPa 0,0 mm 1,5 km/h (1 Bft) W 270 0 min 5,9 C 0,0 km/h (0 Bft)
12.05.2016 23:05 7,8 C 7,7 C 88 % 999,9 hPa 0,0 mm 2,7 km/h (1 Bft) O-SO 112 0 min 5,9 C 0,0 km/h (0 Bft)
12.05.2016 23:10 7,8 C 7,7 C 88 % 999,9 hPa 0,0 mm 3,0 km/h (1 Bft) SO 135 0 min 5,9 C 3,6 km/h (1 Bft)
12.05.2016 23:15 7,9 C 7,7 C 88 % 999,8 hPa 0,0 mm 5,4 km/h (1 Bft) SW 225 0 min 6,0 C 5,1 km/h (1 Bft)
12.05.2016 23:20 7,9 C 7,8 C 88 % 999,8 hPa 0,0 mm 6,0 km/h (2 Bft) W 270 0 min 6,0 C 0,0 km/h (0 Bft)
12.05.2016 23:25 7,9 C 7,8 C 88 % 999,8 hPa 0,0 mm 5,1 km/h (1 Bft) S-SO 157 0 min 6,0 C 3,3 km/h (1 Bft)
12.05.2016 23:30 7,9 C 7,8 C 88 % 999,8 hPa 0,0 mm 4,8 km/h (1 Bft) SW 225 0 min 6,0 C 0,0 km/h (0 Bft)
12.05.2016 23:35 7,9 C 7,8 C 88 % 999,7 hPa 0,0 mm 5,7 km/h (1 Bft) SW 225 0 min 6,0 C 6,3 km/h (2 Bft)
12.05.2016 23:40 7,8 C 7,7 C 88 % 999,7 hPa 0,0 mm 4,5 km/h (1 Bft) SW 225 0 min 5,9 C 6,9 km/h (2 Bft)
12.05.2016 23:45 7,8 C 7,7 C 88 % 999,7 hPa 0,0 mm 2,7 km/h (1 Bft) SW 225 0 min 5,9 C 8,0 km/h (2 Bft)
12.05.2016 23:50 7,8 C 7,7 C 88 % 999,7 hPa 0,0 mm 2,4 km/h (1 Bft) O-SO 112 0 min 5,9 C 0,0 km/h (0 Bft)
12.05.2016 23:55 7,8 C 7,7 C 88 % 999,7 hPa 0,0 mm 2,7 km/h (1 Bft) SW 225 0 min 5,9 C 0,0 km/h (0 Bft)
_ Min-Zeit 03:10 03:15 11:50 19:50 - 21:30 - - - 03:30 23:55
Minimum _ 7,2 C 7,1 C 72 % 999,5 hPa - 0,0 km/h (0 Bft) - - - 5,1 C 0,0 km/h (0 Bft)
_ Max-Zeit 10:10 10:10 06:00 00:10 17:50 12:25 - - 23:55 07:45 10:35
Maximum _ 12,4 C 14,4 C 90 % 1001,9 hPa 0,7 mm 11,9 km/h
W-NW (2 Bft)
- - 0 min 9,8 C 35,2 km/h
W-NW (5 Bft)
Durchschnitt _ 9,5 C 9,7 C 83 % 1000,3 hPa #6,2 mm 3,8 km/h (1 Bft) W-SW - #0 min. 6,7 C 5,6 km/h (1 Bft)